Year,Month,Day,Hour,Minute,Value (Times are PST for temperature in C)
2016,08,31,00,01,14.60
2016,08,31,00,02,14.60
2016,08,31,00,03,14.60
2016,08,31,00,04,14.60
2016,08,31,00,06,14.60
2016,08,31,00,07,14.60
2016,08,31,00,09,14.70
2016,08,31,00,11,14.70
2016,08,31,00,12,14.70
2016,08,31,00,13,14.70
2016,08,31,00,14,14.70
2016,08,31,00,15,14.70
2016,08,31,00,16,14.70
2016,08,31,00,17,14.70
2016,08,31,00,18,14.70
2016,08,31,00,19,14.70
2016,08,31,00,21,14.70
2016,08,31,00,22,14.70
2016,08,31,00,23,14.70
2016,08,31,00,24,14.70
2016,08,31,00,25,14.70
2016,08,31,00,26,14.70
2016,08,31,00,27,14.70
2016,08,31,00,28,14.70
2016,08,31,00,29,14.70
2016,08,31,00,30,14.70
2016,08,31,00,31,14.70
2016,08,31,00,32,14.60
2016,08,31,00,33,14.60
2016,08,31,00,34,14.60
2016,08,31,00,35,14.60
2016,08,31,00,36,14.60
2016,08,31,00,37,14.60
2016,08,31,00,38,14.70
2016,08,31,00,39,14.70
2016,08,31,00,40,14.70
2016,08,31,00,41,14.70
2016,08,31,00,42,14.70
2016,08,31,00,43,14.70
2016,08,31,00,44,14.70
2016,08,31,00,45,14.70
2016,08,31,00,46,14.70
2016,08,31,00,47,14.60
2016,08,31,00,48,14.60
2016,08,31,00,49,14.60
2016,08,31,00,50,14.60
2016,08,31,00,51,14.60
2016,08,31,00,52,14.60
2016,08,31,00,53,14.60
2016,08,31,00,54,14.60
2016,08,31,00,55,14.60
2016,08,31,00,56,14.60
2016,08,31,00,57,14.60
2016,08,31,00,58,14.60
2016,08,31,00,59,14.60
2016,08,31,01,00,14.60
2016,08,31,01,01,14.60
2016,08,31,01,02,14.60
2016,08,31,01,03,14.60
2016,08,31,01,04,14.60
2016,08,31,01,05,14.60
2016,08,31,01,06,14.60
2016,08,31,01,07,14.60
2016,08,31,01,08,14.60
2016,08,31,01,09,14.60
2016,08,31,01,10,14.60
2016,08,31,01,11,14.60
2016,08,31,01,12,14.60
2016,08,31,01,13,14.60
2016,08,31,01,14,14.60
2016,08,31,01,15,14.60
2016,08,31,01,16,14.60
2016,08,31,01,17,14.60
2016,08,31,01,18,14.60
2016,08,31,01,19,14.50
2016,08,31,01,20,14.50
2016,08,31,01,21,14.50
2016,08,31,01,22,14.50
2016,08,31,01,23,14.50
2016,08,31,01,24,14.50
2016,08,31,01,25,14.50
2016,08,31,01,26,14.50
2016,08,31,01,27,14.50
2016,08,31,01,28,14.50
2016,08,31,01,29,14.50
2016,08,31,01,30,14.50
2016,08,31,01,31,14.50
2016,08,31,01,32,14.50
2016,08,31,01,33,14.50
2016,08,31,01,34,14.40
2016,08,31,01,35,14.40
2016,08,31,01,36,14.40
2016,08,31,01,37,14.40
2016,08,31,01,38,14.40
2016,08,31,01,39,14.40
2016,08,31,01,41,14.40
2016,08,31,01,42,14.50
2016,08,31,01,43,14.50
2016,08,31,01,44,14.50
2016,08,31,01,46,14.50
2016,08,31,01,47,14.50
2016,08,31,01,48,14.50
2016,08,31,01,49,14.50
2016,08,31,01,51,14.50
2016,08,31,01,52,14.50
2016,08,31,01,53,14.50
2016,08,31,01,54,14.50
2016,08,31,01,56,14.50
2016,08,31,01,57,14.50
2016,08,31,01,58,14.50
2016,08,31,01,59,14.50
2016,08,31,02,01,14.50
2016,08,31,02,02,14.50
2016,08,31,02,03,14.50
2016,08,31,02,04,14.50
2016,08,31,02,06,14.50
2016,08,31,02,07,14.50
2016,08,31,02,08,14.50
2016,08,31,02,09,14.50
2016,08,31,02,11,14.50
2016,08,31,02,12,14.50
2016,08,31,02,13,14.50
2016,08,31,02,14,14.50
2016,08,31,02,16,14.50
2016,08,31,02,17,14.50
2016,08,31,02,18,14.50
2016,08,31,02,19,14.50
2016,08,31,02,21,14.50
2016,08,31,02,22,14.50
2016,08,31,02,23,14.50
2016,08,31,02,24,14.50
2016,08,31,02,26,14.60
2016,08,31,02,27,14.60
2016,08,31,02,28,14.60
2016,08,31,02,29,14.60
2016,08,31,02,31,14.60
2016,08,31,02,32,14.60
2016,08,31,02,33,14.60
2016,08,31,02,34,14.60
2016,08,31,02,36,14.50
2016,08,31,02,37,14.50
2016,08,31,02,38,14.50
2016,08,31,02,39,14.50
2016,08,31,02,41,14.50
2016,08,31,02,42,14.50
2016,08,31,02,43,14.50
2016,08,31,02,44,14.50
2016,08,31,02,46,14.50
2016,08,31,02,47,14.50
2016,08,31,02,48,14.50
2016,08,31,02,49,14.50
2016,08,31,02,51,14.50
2016,08,31,02,52,14.50
2016,08,31,02,53,14.50
2016,08,31,02,54,14.50
2016,08,31,02,55,14.50
2016,08,31,02,56,14.50
2016,08,31,02,57,14.50
2016,08,31,02,58,14.50
2016,08,31,02,59,14.40
2016,08,31,03,00,14.40
2016,08,31,03,01,14.40
2016,08,31,03,02,14.40
2016,08,31,03,03,14.40
2016,08,31,03,04,14.40
2016,08,31,03,06,14.40
2016,08,31,03,07,14.30
2016,08,31,03,08,14.30
2016,08,31,03,09,14.30
2016,08,31,03,10,14.30
2016,08,31,03,11,14.20
2016,08,31,03,12,14.20
2016,08,31,03,13,14.20
2016,08,31,03,14,14.20
2016,08,31,03,15,14.20
2016,08,31,03,16,14.20
2016,08,31,03,17,14.20
2016,08,31,03,18,14.20
2016,08,31,03,19,14.20
2016,08,31,03,20,14.20
2016,08,31,03,21,14.20
2016,08,31,03,22,14.20
2016,08,31,03,23,14.10
2016,08,31,03,24,14.10
2016,08,31,03,25,14.10
2016,08,31,03,26,14.00
2016,08,31,03,27,13.90
2016,08,31,03,28,13.80
2016,08,31,03,29,13.80
2016,08,31,03,30,13.80
2016,08,31,03,31,13.70
2016,08,31,03,32,13.70
2016,08,31,03,33,13.70
2016,08,31,03,34,13.70
2016,08,31,03,35,13.70
2016,08,31,03,36,13.70
2016,08,31,03,37,13.70
2016,08,31,03,38,13.70
2016,08,31,03,39,13.70
2016,08,31,03,40,13.70
2016,08,31,03,41,13.70
2016,08,31,03,42,13.70
2016,08,31,03,43,13.70
2016,08,31,03,44,13.60
2016,08,31,03,45,13.60
2016,08,31,03,46,13.60
2016,08,31,03,47,13.60
2016,08,31,03,48,13.60
2016,08,31,03,49,13.60
2016,08,31,03,50,13.60
2016,08,31,03,51,13.60
2016,08,31,03,52,13.50
2016,08,31,03,53,13.50
2016,08,31,03,54,13.50
2016,08,31,03,55,13.50
2016,08,31,03,56,13.50
2016,08,31,03,57,13.50
2016,08,31,03,58,13.50
2016,08,31,03,59,13.50
2016,08,31,04,00,13.50
2016,08,31,04,01,13.50
2016,08,31,04,02,13.50
2016,08,31,04,03,13.50
2016,08,31,04,04,13.50
2016,08,31,04,05,13.50
2016,08,31,04,06,13.50
2016,08,31,04,07,13.50
2016,08,31,04,08,13.50
2016,08,31,04,09,13.50
2016,08,31,04,10,13.40
2016,08,31,04,11,13.40
2016,08,31,04,12,13.40
2016,08,31,04,13,13.40
2016,08,31,04,14,13.40
2016,08,31,04,15,13.40
2016,08,31,04,16,13.30
2016,08,31,04,17,13.30
2016,08,31,04,18,13.30
2016,08,31,04,19,13.30
2016,08,31,04,20,13.30
2016,08,31,04,21,13.30
2016,08,31,04,22,13.30
2016,08,31,04,23,13.30
2016,08,31,04,24,13.30
2016,08,31,04,25,13.30
2016,08,31,04,27,13.30
2016,08,31,04,28,13.30
2016,08,31,04,29,13.30
2016,08,31,04,31,13.30
2016,08,31,04,32,13.30
2016,08,31,04,33,13.30
2016,08,31,04,34,13.30
2016,08,31,04,36,13.30
2016,08,31,04,37,13.30
2016,08,31,04,38,13.30
2016,08,31,04,39,13.30
2016,08,31,04,41,13.30
2016,08,31,04,42,13.30
2016,08,31,04,43,13.30
2016,08,31,04,44,13.30
2016,08,31,04,46,13.30
2016,08,31,04,47,13.30
2016,08,31,04,48,13.30
2016,08,31,04,49,13.30
2016,08,31,04,51,13.30
2016,08,31,04,52,13.30
2016,08,31,04,53,13.30
2016,08,31,04,54,13.30
2016,08,31,04,56,13.30
2016,08,31,04,57,13.30
2016,08,31,04,58,13.30
2016,08,31,04,59,13.30
2016,08,31,05,01,13.30
2016,08,31,05,02,13.30
2016,08,31,05,03,13.30
2016,08,31,05,04,13.30
2016,08,31,05,06,13.30
2016,08,31,05,07,13.30
2016,08,31,05,08,13.30
2016,08,31,05,09,13.30
2016,08,31,05,11,13.30
2016,08,31,05,12,13.30
2016,08,31,05,13,13.30
2016,08,31,05,14,13.30
2016,08,31,05,16,13.30
2016,08,31,05,17,13.30
2016,08,31,05,18,13.30
2016,08,31,05,19,13.30
2016,08,31,05,21,13.30
2016,08,31,05,22,13.30
2016,08,31,05,23,13.30
2016,08,31,05,24,13.30
2016,08,31,05,26,13.30
2016,08,31,05,27,13.30
2016,08,31,05,28,13.30
2016,08,31,05,29,13.30
2016,08,31,05,31,13.30
2016,08,31,05,32,13.30
2016,08,31,05,33,13.30
2016,08,31,05,34,13.30
2016,08,31,05,36,13.30
2016,08,31,05,37,13.20
2016,08,31,05,38,13.20
2016,08,31,05,39,13.20
2016,08,31,05,41,13.20
2016,08,31,05,42,13.20
2016,08,31,05,43,13.20
2016,08,31,05,44,13.20
2016,08,31,05,45,13.20
2016,08,31,05,46,13.20
2016,08,31,05,47,13.20
2016,08,31,05,48,13.20
2016,08,31,05,49,13.20
2016,08,31,05,51,13.20
2016,08,31,05,52,13.20
2016,08,31,05,53,13.20
2016,08,31,05,54,13.20
2016,08,31,05,55,13.20
2016,08,31,05,56,13.20
2016,08,31,05,57,13.20
2016,08,31,05,58,13.20
2016,08,31,05,59,13.20
2016,08,31,06,00,13.20
2016,08,31,06,01,13.10
2016,08,31,06,02,13.20
2016,08,31,06,03,13.20
2016,08,31,06,04,13.20
2016,08,31,06,06,13.20
2016,08,31,06,07,13.20
2016,08,31,06,08,13.20
2016,08,31,06,09,13.20
2016,08,31,06,10,13.20
2016,08,31,06,11,13.20
2016,08,31,06,12,13.20
2016,08,31,06,13,13.20
2016,08,31,06,14,13.20
2016,08,31,06,15,13.20
2016,08,31,06,16,13.20
2016,08,31,06,17,13.20
2016,08,31,06,18,13.20
2016,08,31,06,19,13.20
2016,08,31,06,20,13.20
2016,08,31,06,21,13.20
2016,08,31,06,22,13.20
2016,08,31,06,23,13.20
2016,08,31,06,24,13.20
2016,08,31,06,25,13.20
2016,08,31,06,26,13.30
2016,08,31,06,27,13.30
2016,08,31,06,28,13.30
2016,08,31,06,29,13.30
2016,08,31,06,30,13.30
2016,08,31,06,31,13.30
2016,08,31,06,32,13.30
2016,08,31,06,33,13.30
2016,08,31,06,34,13.30
2016,08,31,06,35,13.30
2016,08,31,06,36,13.30
2016,08,31,06,37,13.30
2016,08,31,06,38,13.30
2016,08,31,06,39,13.30
2016,08,31,06,40,13.30
2016,08,31,06,41,13.30
2016,08,31,06,42,13.40
2016,08,31,06,43,13.40
2016,08,31,06,44,13.40
2016,08,31,06,45,13.40
2016,08,31,06,46,13.50
2016,08,31,06,47,13.50
2016,08,31,06,48,13.50
2016,08,31,06,49,13.50
2016,08,31,06,50,13.50
2016,08,31,06,51,13.50
2016,08,31,06,52,13.50
2016,08,31,06,53,13.60
2016,08,31,06,54,13.60
2016,08,31,06,55,13.60
2016,08,31,06,56,13.60
2016,08,31,06,57,13.60
2016,08,31,06,58,13.60
2016,08,31,06,59,13.60
2016,08,31,07,00,13.60
2016,08,31,07,01,13.60
2016,08,31,07,02,13.60
2016,08,31,07,03,13.60
2016,08,31,07,04,13.60
2016,08,31,07,05,13.60
2016,08,31,07,06,13.60
2016,08,31,07,07,13.60
2016,08,31,07,08,13.70
2016,08,31,07,09,13.70
2016,08,31,07,10,13.70
2016,08,31,07,11,13.70
2016,08,31,07,12,13.70
2016,08,31,07,14,13.70
2016,08,31,07,16,13.70
2016,08,31,07,17,13.70
2016,08,31,07,18,13.70
2016,08,31,07,19,13.70
2016,08,31,07,21,13.70
2016,08,31,07,22,13.70
2016,08,31,07,23,13.70
2016,08,31,07,24,13.70
2016,08,31,07,26,13.70
2016,08,31,07,27,13.70
2016,08,31,07,28,13.70
2016,08,31,07,29,13.70
2016,08,31,07,31,13.70
2016,08,31,07,32,13.70
2016,08,31,07,33,13.70
2016,08,31,07,34,13.70
2016,08,31,07,36,13.70
2016,08,31,07,37,13.70
2016,08,31,07,38,13.70
2016,08,31,07,39,13.80
2016,08,31,07,41,13.80
2016,08,31,07,42,13.80
2016,08,31,07,43,13.80
2016,08,31,07,44,13.80
2016,08,31,07,46,13.90
2016,08,31,07,47,13.90
2016,08,31,07,48,13.90
2016,08,31,07,49,13.90
2016,08,31,07,51,13.90
2016,08,31,07,52,13.90
2016,08,31,07,53,13.90
2016,08,31,07,54,13.90
2016,08,31,07,56,13.90
2016,08,31,07,57,13.90
2016,08,31,07,58,13.90
2016,08,31,07,59,13.90
2016,08,31,08,01,13.80
2016,08,31,08,02,13.80
2016,08,31,08,03,13.80
2016,08,31,08,04,13.80
2016,08,31,08,06,13.80
2016,08,31,08,07,13.80
2016,08,31,08,08,13.80
2016,08,31,08,09,13.80
2016,08,31,08,11,13.80
2016,08,31,08,12,13.70
2016,08,31,08,13,13.70
2016,08,31,08,14,13.70
2016,08,31,08,16,13.70
2016,08,31,08,17,13.70
2016,08,31,08,18,13.70
2016,08,31,08,19,13.70
2016,08,31,08,21,13.70
2016,08,31,08,22,13.70
2016,08,31,08,23,13.70
2016,08,31,08,24,13.70
2016,08,31,08,26,13.70
2016,08,31,08,27,13.70
2016,08,31,08,28,13.70
2016,08,31,08,29,13.70
2016,08,31,08,31,13.70
2016,08,31,08,32,13.70
2016,08,31,08,33,13.70
2016,08,31,08,34,13.70
2016,08,31,08,36,13.70
2016,08,31,08,37,13.70
2016,08,31,08,38,13.70
2016,08,31,08,39,13.70
2016,08,31,08,41,13.70
2016,08,31,08,42,13.70
2016,08,31,08,43,13.70
2016,08,31,08,44,13.70
2016,08,31,08,45,13.70
2016,08,31,08,46,13.70
2016,08,31,08,47,13.70
2016,08,31,08,48,13.80
2016,08,31,08,49,13.80
2016,08,31,08,50,13.80
2016,08,31,08,51,13.90
2016,08,31,08,52,13.90
2016,08,31,08,53,13.90
2016,08,31,08,54,13.90
2016,08,31,08,55,14.00
2016,08,31,08,56,14.00
2016,08,31,08,57,14.00
2016,08,31,08,58,14.00
2016,08,31,08,59,14.00
2016,08,31,09,00,14.00
2016,08,31,09,01,14.00
2016,08,31,09,02,14.10
2016,08,31,09,03,14.10
2016,08,31,09,04,14.10
2016,08,31,09,05,14.10
2016,08,31,09,06,14.20
2016,08,31,09,07,14.20
2016,08,31,09,08,14.20
2016,08,31,09,09,14.20
2016,08,31,09,10,14.20
2016,08,31,09,11,14.20
2016,08,31,09,12,14.20
2016,08,31,09,13,14.20
2016,08,31,09,14,14.20
2016,08,31,09,15,14.20
2016,08,31,09,16,14.30
2016,08,31,09,17,14.30
2016,08,31,09,18,14.30
2016,08,31,09,19,14.30
2016,08,31,09,20,14.40
2016,08,31,09,21,14.40
2016,08,31,09,22,14.40
2016,08,31,09,23,14.40
2016,08,31,09,24,14.40
2016,08,31,09,25,14.40
2016,08,31,09,26,14.40
2016,08,31,09,27,14.40
2016,08,31,09,28,14.50
2016,08,31,09,29,14.50
2016,08,31,09,30,14.50
2016,08,31,09,31,14.50
2016,08,31,09,32,14.60
2016,08,31,09,33,14.60
2016,08,31,09,34,14.60
2016,08,31,09,35,14.60
2016,08,31,09,36,14.70
2016,08,31,09,37,14.70
2016,08,31,09,38,14.70
2016,08,31,09,39,14.70
2016,08,31,09,40,14.70
2016,08,31,09,41,14.70
2016,08,31,09,42,14.70
2016,08,31,09,43,14.70
2016,08,31,09,44,14.70
2016,08,31,09,45,14.70
2016,08,31,09,46,14.70
2016,08,31,09,47,14.70
2016,08,31,09,48,14.70
2016,08,31,09,49,14.70
2016,08,31,09,50,14.70
2016,08,31,09,51,14.70
2016,08,31,09,52,14.70
2016,08,31,09,53,14.80
2016,08,31,09,54,14.80
2016,08,31,09,55,14.80
2016,08,31,09,56,14.80
2016,08,31,09,57,14.80
2016,08,31,09,58,14.80
2016,08,31,09,59,14.80
2016,08,31,10,00,14.70
2016,08,31,10,02,14.70
2016,08,31,10,03,14.60
2016,08,31,10,04,14.60
2016,08,31,10,06,14.60
2016,08,31,10,07,14.60
2016,08,31,10,08,14.60
2016,08,31,10,09,14.60
2016,08,31,10,11,14.60
2016,08,31,10,12,14.60
2016,08,31,10,13,14.60
2016,08,31,10,14,14.50
2016,08,31,10,16,14.50
2016,08,31,10,17,14.50
2016,08,31,10,18,14.50
2016,08,31,10,19,14.50
2016,08,31,10,21,14.50
2016,08,31,10,22,14.50
2016,08,31,10,23,14.50
2016,08,31,10,24,14.50
2016,08,31,10,26,14.50
2016,08,31,10,27,14.50
2016,08,31,10,28,14.40
2016,08,31,10,29,14.40
2016,08,31,10,31,14.50
2016,08,31,10,32,14.50
2016,08,31,10,33,14.50
2016,08,31,10,34,14.50
2016,08,31,10,36,14.60
2016,08,31,10,37,14.60
2016,08,31,10,38,14.60
2016,08,31,10,39,14.60
2016,08,31,10,41,14.60
2016,08,31,10,42,14.60
2016,08,31,10,43,14.60
2016,08,31,10,44,14.60
2016,08,31,10,46,14.70
2016,08,31,10,47,14.80
2016,08,31,10,48,14.80
2016,08,31,10,49,14.80
2016,08,31,10,51,14.80
2016,08,31,10,52,14.80
2016,08,31,10,53,14.80
2016,08,31,10,54,14.80
2016,08,31,10,56,14.80
2016,08,31,10,57,14.80
2016,08,31,10,58,14.80
2016,08,31,10,59,14.80
2016,08,31,11,01,15.00
2016,08,31,11,02,15.20
2016,08,31,11,03,15.30
2016,08,31,11,04,15.30
2016,08,31,11,06,15.50
2016,08,31,11,07,15.50
2016,08,31,11,08,15.40
2016,08,31,11,09,15.40
2016,08,31,11,11,15.40
2016,08,31,11,12,15.30
2016,08,31,11,13,15.30
2016,08,31,11,14,15.30
2016,08,31,11,16,15.50
2016,08,31,11,17,15.60
2016,08,31,11,18,15.60
2016,08,31,11,19,15.70
2016,08,31,11,21,15.80
2016,08,31,11,22,15.90
2016,08,31,11,23,15.90
2016,08,31,11,24,16.10
2016,08,31,11,26,16.10
2016,08,31,11,27,16.20
2016,08,31,11,28,16.20
2016,08,31,11,29,16.20
2016,08,31,11,31,16.30
2016,08,31,11,32,16.30
2016,08,31,11,33,16.40
2016,08,31,11,34,16.40
2016,08,31,11,36,16.60
2016,08,31,11,37,16.60
2016,08,31,11,38,16.60
2016,08,31,11,39,16.70
2016,08,31,11,41,16.70
2016,08,31,11,42,16.70
2016,08,31,11,43,16.70
2016,08,31,11,44,16.70
2016,08,31,11,45,16.80
2016,08,31,11,46,16.80
2016,08,31,11,47,16.80
2016,08,31,11,48,16.80
2016,08,31,11,49,16.80
2016,08,31,11,50,16.80
2016,08,31,11,51,16.80
2016,08,31,11,52,16.80
2016,08,31,11,53,16.80
2016,08,31,11,54,16.80
2016,08,31,11,55,16.80
2016,08,31,11,56,16.80
2016,08,31,11,57,16.80
2016,08,31,11,58,16.80
2016,08,31,11,59,16.80
2016,08,31,12,00,16.80
2016,08,31,12,01,16.70
2016,08,31,12,02,16.70
2016,08,31,12,03,16.60
2016,08,31,12,04,16.40
2016,08,31,12,05,16.40
2016,08,31,12,06,16.40
2016,08,31,12,07,16.30
2016,08,31,12,08,16.30
2016,08,31,12,09,16.30
2016,08,31,12,10,16.30
2016,08,31,12,11,16.30
2016,08,31,12,12,16.30
2016,08,31,12,13,16.30
2016,08,31,12,14,16.30
2016,08,31,12,15,16.20
2016,08,31,12,16,16.20
2016,08,31,12,17,16.20
2016,08,31,12,18,16.10
2016,08,31,12,19,16.10
2016,08,31,12,20,16.10
2016,08,31,12,21,16.10
2016,08,31,12,22,16.10
2016,08,31,12,23,16.10
2016,08,31,12,24,16.10
2016,08,31,12,25,16.10
2016,08,31,12,26,16.10
2016,08,31,12,27,16.10
2016,08,31,12,28,16.10
2016,08,31,12,29,16.20
2016,08,31,12,30,16.20
2016,08,31,12,31,16.30
2016,08,31,12,32,16.40
2016,08,31,12,33,16.40
2016,08,31,12,34,16.40
2016,08,31,12,35,16.40
2016,08,31,12,36,16.60
2016,08,31,12,37,16.70
2016,08,31,12,38,16.70
2016,08,31,12,39,16.70
2016,08,31,12,40,16.80
2016,08,31,12,41,16.80
2016,08,31,12,42,16.80
2016,08,31,12,43,16.90
2016,08,31,12,44,16.90
2016,08,31,12,45,16.90
2016,08,31,12,46,17.00
2016,08,31,12,47,17.00
2016,08,31,12,48,17.00
2016,08,31,12,49,17.00
2016,08,31,12,50,16.90
2016,08,31,12,51,16.90
2016,08,31,12,52,16.90
2016,08,31,12,53,16.90
2016,08,31,12,54,16.90
2016,08,31,12,55,16.80
2016,08,31,12,56,16.80
2016,08,31,12,57,16.70
2016,08,31,12,58,16.70
2016,08,31,12,59,16.70
2016,08,31,13,00,16.70
2016,08,31,13,01,16.70
2016,08,31,13,03,16.60
2016,08,31,13,04,16.40
2016,08,31,13,06,16.40
2016,08,31,13,07,16.40
2016,08,31,13,08,16.40
2016,08,31,13,09,16.30
2016,08,31,13,11,16.10
2016,08,31,13,12,16.10
2016,08,31,13,13,15.90
2016,08,31,13,14,15.90
2016,08,31,13,16,15.80
2016,08,31,13,17,15.80
2016,08,31,13,18,15.70
2016,08,31,13,19,15.70
2016,08,31,13,21,15.70
2016,08,31,13,22,15.70
2016,08,31,13,23,15.70
2016,08,31,13,24,15.70
2016,08,31,13,26,15.70
2016,08,31,13,27,15.60
2016,08,31,13,29,15.60
2016,08,31,13,31,15.50
2016,08,31,13,32,15.40
2016,08,31,13,33,15.30
2016,08,31,13,34,15.30
2016,08,31,13,36,15.20
2016,08,31,13,37,15.10
2016,08,31,13,38,15.10
2016,08,31,13,39,14.90
2016,08,31,13,41,14.80
2016,08,31,13,42,14.80
2016,08,31,13,43,14.80
2016,08,31,13,44,14.70
2016,08,31,13,46,14.60
2016,08,31,13,47,14.60
2016,08,31,13,48,14.50
2016,08,31,13,49,14.50
2016,08,31,13,51,14.50
2016,08,31,13,52,14.50
2016,08,31,13,53,14.50
2016,08,31,13,54,14.50
2016,08,31,13,56,14.60
2016,08,31,13,57,14.60
2016,08,31,13,58,14.60
2016,08,31,13,59,14.60
2016,08,31,14,01,14.60
2016,08,31,14,02,14.60
2016,08,31,14,03,14.60
2016,08,31,14,04,14.60
2016,08,31,14,06,14.50
2016,08,31,14,07,14.50
2016,08,31,14,08,14.40
2016,08,31,14,09,14.40
2016,08,31,14,11,14.30
2016,08,31,14,12,14.20
2016,08,31,14,13,14.20
2016,08,31,14,14,14.20
2016,08,31,14,16,14.10
2016,08,31,14,17,14.00
2016,08,31,14,18,13.90
2016,08,31,14,19,13.90
2016,08,31,14,21,13.80
2016,08,31,14,22,13.80
2016,08,31,14,23,13.80
2016,08,31,14,24,13.80
2016,08,31,14,26,13.80
2016,08,31,14,27,13.80
2016,08,31,14,28,13.80
2016,08,31,14,29,13.70
2016,08,31,14,31,13.70
2016,08,31,14,32,13.70
2016,08,31,14,33,13.70
2016,08,31,14,34,13.70
2016,08,31,14,36,13.70
2016,08,31,14,37,13.70
2016,08,31,14,38,13.70
2016,08,31,14,39,13.70
2016,08,31,14,41,13.70
2016,08,31,14,42,13.70
2016,08,31,14,43,13.70
2016,08,31,14,44,13.70
2016,08,31,14,45,13.80
2016,08,31,14,46,13.80
2016,08,31,14,47,13.90
2016,08,31,14,48,13.90
2016,08,31,14,49,13.90
2016,08,31,14,50,14.00
2016,08,31,14,51,14.10
2016,08,31,14,52,14.20
2016,08,31,14,53,14.20
2016,08,31,14,54,14.20
2016,08,31,14,55,14.20
2016,08,31,14,56,14.20
2016,08,31,14,57,14.20
2016,08,31,14,58,14.20
2016,08,31,14,59,14.30
2016,08,31,15,00,14.40
2016,08,31,15,01,14.40
2016,08,31,15,02,14.50
2016,08,31,15,03,14.60
2016,08,31,15,04,14.70
2016,08,31,15,05,14.80
2016,08,31,15,06,14.80
2016,08,31,15,07,14.80
2016,08,31,15,08,14.80
2016,08,31,15,09,14.80
2016,08,31,15,10,14.80
2016,08,31,15,11,14.80
2016,08,31,15,12,14.80
2016,08,31,15,13,14.90
2016,08,31,15,14,14.90
2016,08,31,15,15,15.00
2016,08,31,15,16,15.10
2016,08,31,15,17,15.20
2016,08,31,15,18,15.20
2016,08,31,15,19,15.30
2016,08,31,15,20,15.30
2016,08,31,15,21,15.30
2016,08,31,15,22,15.30
2016,08,31,15,23,15.30
2016,08,31,15,24,15.30
2016,08,31,15,25,15.30
2016,08,31,15,26,15.30
2016,08,31,15,27,15.30
2016,08,31,15,28,15.30
2016,08,31,15,29,15.30
2016,08,31,15,30,15.30
2016,08,31,15,31,15.30
2016,08,31,15,32,15.20
2016,08,31,15,33,15.20
2016,08,31,15,34,15.10
2016,08,31,15,35,15.10
2016,08,31,15,36,15.10
2016,08,31,15,37,15.20
2016,08,31,15,38,15.20
2016,08,31,15,39,15.20
2016,08,31,15,40,15.30
2016,08,31,15,41,15.30
2016,08,31,15,42,15.30
2016,08,31,15,43,15.30
2016,08,31,15,44,15.30
2016,08,31,15,45,15.30
2016,08,31,15,46,15.30
2016,08,31,15,47,15.30
2016,08,31,15,48,15.30
2016,08,31,15,49,15.30
2016,08,31,15,50,15.30
2016,08,31,15,51,15.30
2016,08,31,15,52,15.30
2016,08,31,15,53,15.20
2016,08,31,15,54,15.20
2016,08,31,15,55,15.20
2016,08,31,15,56,15.20
2016,08,31,15,57,15.30
2016,08,31,15,58,15.30
2016,08,31,15,59,15.30
2016,08,31,16,00,15.30
2016,08,31,16,01,15.30
2016,08,31,16,03,15.30
2016,08,31,16,04,15.30
2016,08,31,16,06,15.30
2016,08,31,16,07,15.20
2016,08,31,16,08,15.20
2016,08,31,16,09,15.20
2016,08,31,16,11,15.30
2016,08,31,16,12,15.30
2016,08,31,16,13,15.40
2016,08,31,16,14,15.50
2016,08,31,16,16,15.60
2016,08,31,16,17,15.80
2016,08,31,16,18,15.80
2016,08,31,16,19,15.80
2016,08,31,16,21,15.90
2016,08,31,16,22,16.10
2016,08,31,16,23,16.10
2016,08,31,16,24,15.90
2016,08,31,16,26,15.80
2016,08,31,16,27,15.80
2016,08,31,16,28,15.80
2016,08,31,16,29,15.80
2016,08,31,16,31,15.70
2016,08,31,16,32,15.70
2016,08,31,16,33,15.60
2016,08,31,16,34,15.50
2016,08,31,16,36,15.50
2016,08,31,16,37,15.40
2016,08,31,16,38,15.40
2016,08,31,16,39,15.30
2016,08,31,16,41,15.30
2016,08,31,16,42,15.30
2016,08,31,16,43,15.30
2016,08,31,16,44,15.20
2016,08,31,16,46,15.20
2016,08,31,16,47,15.20
2016,08,31,16,48,15.10
2016,08,31,16,49,15.00
2016,08,31,16,51,14.80
2016,08,31,16,52,14.80
2016,08,31,16,53,14.80
2016,08,31,16,54,14.70
2016,08,31,16,56,14.70
2016,08,31,16,57,14.70
2016,08,31,16,58,14.70
2016,08,31,16,59,14.80
2016,08,31,17,01,14.80
2016,08,31,17,02,14.90
2016,08,31,17,03,14.90
2016,08,31,17,04,14.90
2016,08,31,17,06,15.00
2016,08,31,17,07,15.00
2016,08,31,17,08,15.10
2016,08,31,17,09,15.10
2016,08,31,17,11,15.10
2016,08,31,17,12,15.20
2016,08,31,17,13,15.20
2016,08,31,17,14,15.30
2016,08,31,17,16,15.30
2016,08,31,17,17,15.40
2016,08,31,17,18,15.40
2016,08,31,17,19,15.50
2016,08,31,17,21,15.50
2016,08,31,17,22,15.50
2016,08,31,17,23,15.50
2016,08,31,17,24,15.40
2016,08,31,17,25,15.30
2016,08,31,17,26,15.30
2016,08,31,17,27,15.20
2016,08,31,17,28,15.10
2016,08,31,17,29,15.00
2016,08,31,17,31,14.90
2016,08,31,17,32,14.90
2016,08,31,17,33,14.80
2016,08,31,17,34,14.80
2016,08,31,17,36,14.80
2016,08,31,17,37,14.80
2016,08,31,17,38,14.80
2016,08,31,17,39,14.90
2016,08,31,17,41,14.90
2016,08,31,17,42,14.90
2016,08,31,17,43,14.90
2016,08,31,17,44,14.90
2016,08,31,17,45,14.90
2016,08,31,17,46,14.90
2016,08,31,17,47,14.90
2016,08,31,17,48,14.90
2016,08,31,17,49,14.90
2016,08,31,17,50,14.90
2016,08,31,17,51,14.80
2016,08,31,17,52,14.80
2016,08,31,17,53,14.80
2016,08,31,17,54,14.80
2016,08,31,17,55,14.80
2016,08,31,17,56,14.80
2016,08,31,17,57,14.80
2016,08,31,17,58,14.80
2016,08,31,17,59,14.80
2016,08,31,18,01,14.80
2016,08,31,18,02,14.70
2016,08,31,18,03,14.70
2016,08,31,18,04,14.70
2016,08,31,18,05,14.70
2016,08,31,18,06,14.60
2016,08,31,18,07,14.60
2016,08,31,18,08,14.60
2016,08,31,18,09,14.50
2016,08,31,18,10,14.50
2016,08,31,18,11,14.50
2016,08,31,18,12,14.40
2016,08,31,18,13,14.40
2016,08,31,18,14,14.40
2016,08,31,18,15,14.40
2016,08,31,18,16,14.40
2016,08,31,18,17,14.40
2016,08,31,18,18,14.40
2016,08,31,18,19,14.40
2016,08,31,18,20,14.40
2016,08,31,18,21,14.40
2016,08,31,18,22,14.30
2016,08,31,18,23,14.30
2016,08,31,18,24,14.30
2016,08,31,18,25,14.30
2016,08,31,18,26,14.20
2016,08,31,18,27,14.20
2016,08,31,18,28,14.20
2016,08,31,18,29,14.20
2016,08,31,18,30,14.20
2016,08,31,18,31,14.20
2016,08,31,18,32,14.20
2016,08,31,18,33,14.20
2016,08,31,18,34,14.20
2016,08,31,18,35,14.20
2016,08,31,18,36,14.20
2016,08,31,18,37,14.20
2016,08,31,18,38,14.20
2016,08,31,18,39,14.20
2016,08,31,18,40,14.20
2016,08,31,18,41,14.20
2016,08,31,18,42,14.20
2016,08,31,18,43,14.20
2016,08,31,18,44,14.20
2016,08,31,18,45,14.20
2016,08,31,18,46,14.10
2016,08,31,18,47,14.10
2016,08,31,18,48,14.10
2016,08,31,18,49,14.10
2016,08,31,18,50,14.10
2016,08,31,18,51,14.10
2016,08,31,18,52,14.10
2016,08,31,18,53,14.00
2016,08,31,18,54,14.00
2016,08,31,18,55,14.00
2016,08,31,18,56,14.00
2016,08,31,18,57,14.00
2016,08,31,18,58,14.00
2016,08,31,18,59,13.90
2016,08,31,19,00,13.90
2016,08,31,19,01,13.90
2016,08,31,19,02,13.90
2016,08,31,19,04,13.90
2016,08,31,19,05,13.90
2016,08,31,19,07,13.90
2016,08,31,19,08,13.90
2016,08,31,19,09,13.90
2016,08,31,19,11,13.80
2016,08,31,19,12,13.80
2016,08,31,19,13,13.80
2016,08,31,19,14,13.80
2016,08,31,19,16,13.80
2016,08,31,19,17,13.80
2016,08,31,19,18,13.80
2016,08,31,19,19,13.80
2016,08,31,19,21,13.80
2016,08,31,19,22,13.80
2016,08,31,19,23,13.80
2016,08,31,19,24,13.80
2016,08,31,19,26,13.80
2016,08,31,19,27,13.80